Date,TemperatureHighF,TemperatureAvgF,TemperatureLowF,DewpointHighF,DewpointAvgF,DewpointLowF,HumidityHigh,HumidityAvg,HumidityLow,PressureMaxIn,PressureMinIn,WindSpeedMaxMPH,WindSpeedAvgMPH,GustSpeedMaxMPH,PrecipitationSumIn
2013-2-1,19.2,12.4,6.4,16.0,-12.9,-38.2,51,24,10,30.40,29.92,27,7,27,0.02
2013-2-2,20.5,13.8,5.2,5.5,-11.0,-31.4,52,33,12,30.40,30.08,14,5,14,0.00
2013-2-3,26.6,19.9,14.2,6.6,-0.9,-13.2,52,41,18,30.10,29.93,18,4,18,0.00
2013-2-4,26.2,18.9,12.6,26.2,-1.0,-30.3,57,29,10,30.17,29.99,17,5,18,0.00
2013-2-5,29.1,26.1,23.5,15.8,13.0,10.6,60,57,54,30.09,29.96,10,1,10,0.00
2013-2-6,33.3,24.8,19.6,33.3,7.9,-26.7,58,32,10,30.46,30.06,15,1,15,0.01
2013-2-7,38.1,27.7,18.1,38.1,4.4,-22.5,34,15,10,30.44,30.19,17,6,17,0.04
2013-2-8,35.4,28.9,19.6,22.1,10.1,-5.6,59,46,21,30.21,29.96,21,5,21,0.14
2013-2-9,34.5,21.3,15.6,34.5,8.0,-28.7,49,21,10,30.51,30.21,0,0,0,0.01
2013-2-10,47.8,33.0,17.8,47.8,26.0,-28.3,19,2,10,30.49,30.19,16,4,16,0.00
2013-2-11,61.0,43.6,32.7,61.0,36.7,-15.9,65,21,10,30.20,29.85,31,9,31,0.14
2013-2-12,40.3,31.7,27.1,40.1,15.6,-21.6,15,4,10,30.20,30.06,23,6,23,0.00
2013-2-13,43.2,33.1,27.9,43.0,23.3,-20.7,52,16,10,30.10,29.85,11,2,11,0.00
2013-2-14,41.2,31.9,24.6,41.2,17.6,-15.0,52,25,10,30.12,29.99,17,3,17,0.30
2013-2-15,39.6,33.2,26.2,39.4,14.2,-18.4,49,19,10,30.19,30.07,15,5,15,0.01
2013-2-16,31.8,22.8,14.4,31.8,4.6,-26.1,49,22,10,30.17,30.03,12,3,12,0.02
2013-2-17,25.5,15.7,12.0,25.5,0.8,-31.2,34,15,10,30.33,30.01,21,6,22,0.01
2013-2-18,42.1,24.1,5.4,42.1,16.1,-39.1,15,3,10,30.42,30.13,14,4,14,0.05
2013-2-19,41.7,33.4,21.4,40.1,14.5,-24.7,43,18,10,30.13,29.83,31,8,31,0.18
2013-2-20,22.1,16.4,13.5,22.1,-3.2,-31.7,30,10,10,30.29,30.02,27,10,27,0.00
2013-2-21,27.1,17.4,14.0,27.1,-6.2,-32.1,30,13,10,30.45,30.25,18,5,18,0.00
2013-2-22,28.6,24.4,15.1,26.8,8.7,-30.8,41,21,10,30.40,30.19,18,9,20,0.00
2013-2-23,45.5,35.4,27.9,45.5,7.7,-11.4,43,28,10,30.20,30.01,13,3,13,0.00
2013-2-24,33.1,27.0,24.6,28.6,-2.2,-24.2,47,24,10,30.26,30.01,20,5,20,0.01
2013-2-25,46.8,32.3,21.4,46.8,21.9,-16.4,39,12,12,30.36,30.23,15,3,15,0.00
2013-2-26,36.1,33.1,30.9,34.5,22.7,-18.4,47,18,10,30.25,29.81,21,10,21,0.00
2013-2-27,40.1,34.7,31.3,23.0,14.4,-8.7,56,44,12,29.86,29.76,19,5,19,0.22
2013-2-28,31.8,30.2,29.1,16.2,11.7,4.8,54,46,34,29.93,29.79,15,6,15,0.00